Theta_e
305 306 306 306 306 307 307 308 309 309 311 305 303 307 299 298 296 310 312 314 311 302 294 297 296 290 291 297 295 298 296 295 295 294 296 294 297 294 293 292 291 291 292 291 292 293 290 291 288 288 289 290 294 292 297 298 297 298 292 295 293 295 289 287 284 284 283 286 286 287 286 289 288 287 284 287 288 289 289 287 283 283 279 280 276 277 283
305 305 306 306 306 306 306 307 308 309 309 305 305 299 297 300 299 303 311 314 310 299 289 289 291 290 293 294 294 298 297 295 294 294 294 293 294 293 293 293 294 292 294 293 292 295 289 293 292 290 291 288 294 294 297 298 295 295 292 293 296 290 287 289 284 280 281 281 284 285 286 288 283 285 289 291 291 289 285 282 280 281 284 284 280 280 285
304 305 305 305 306 306 306 306 307 308 309 309 304 296 300 299 300 301 304 310 307 295 297 293 290 289 288 289 289 292 294 297 297 296 294 297 293 294 293 295 294 292 295 294 296 296 294 289 294 294 290 291 292 296 297 299 296 298 297 298 300 293 289 289 284 282 279 278 279 281 282 285 286 284 287 287 289 289 285 285 284 282 286 284 284 285 288
303 304 305 305 305 305 305 306 306 308 309 310 303 299 298 293 287 297 299 304 303 302 303 299 294 290 289 287 289 292 291 296 298 298 296 297 297 296 296 296 296 293 294 292 293 293 296 293 288 292 289 289 291 294 297 298 297 297 298 297 298 289 291 292 290 288 286 287 286 286 287 284 284 285 287 288 289 290 290 289 285 284 283 282 288 289 289
303 303 304 306 306 305 306 305 305 307 308 309 304 300 296 297 291 293 289 299 299 297 300 297 295 290 293 286 290 289 291 293 295 300 293 297 296 295 295 293 291 292 293 292 292 294 293 295 290 290 292 291 292 294 296 298 298 297 296 297 292 286 288 291 292 291 292 292 288 287 291 287 288 286 285 289 288 288 287 286 286 286 283 284 290 287 288
303 303 304 305 306 306 306 306 305 306 307 309 304 294 296 288 291 298 299 293 289 292 293 297 295 294 294 290 294 289 289 291 289 297 298 299 297 292 294 294 294 294 292 293 288 290 291 291 290 291 289 290 291 292 294 296 297 296 296 297 295 290 289 292 291 290 293 293 292 289 290 290 289 288 288 287 288 287 286 287 290 287 287 285 290 288 289
302 303 303 304 305 306 306 305 304 306 306 307 301 292 296 296 295 295 296 290 292 295 295 297 295 294 293 292 293 290 290 289 292 293 294 296 294 295 289 291 293 294 295 293 290 291 287 288 292 290 286 288 290 289 292 294 292 296 293 295 289 292 289 291 292 290 291 292 291 289 289 288 287 287 288 289 288 288 288 289 290 289 289 291 292 290 289
302 303 303 304 305 305 305 304 305 305 305 304 298 296 292 290 292 289 294 293 293 290 293 295 293 290 294 289 291 292 291 289 292 294 294 290 293 298 292 293 294 294 294 293 291 292 293 293 289 289 292 289 291 292 293 289 289 292 292 294 291 291 289 291 288 288 289 291 290 287 288 288 287 287 288 289 289 289 289 289 289 289 289 291 291 289 289
303 303 303 304 305 305 304 304 304 304 305 297 296 295 297 296 296 297 291 287 290 292 288 291 293 290 292 290 291 292 292 290 293 292 297 295 292 295 293 295 294 295 294 294 293 296 295 295 295 292 295 291 294 293 291 294 290 291 289 288 288 288 286 286 287 287 287 290 289 287 287 287 287 288 288 287 287 285 286 286 290 288 287 289 288 287 288
301 302 303 303 303 304 304 303 304 304 305 297 297 293 298 297 297 297 294 286 291 289 290 291 292 288 292 292 292 292 292 294 294 290 295 297 298 297 297 297 296 294 294 293 294 297 298 298 299 298 297 298 296 298 295 296 293 289 288 288 289 287 286 285 286 286 286 289 287 286 287 284 283 286 289 291 289 289 289 290 291 291 292 288 287 288 294
301 301 302 302 302 303 303 303 304 304 302 296 295 295 297 295 294 294 294 286 286 287 288 287 289 291 294 293 292 294 294 294 294 289 290 296 296 299 298 297 295 294 294 297 300 300 300 300 297 297 297 297 296 295 295 295 296 294 291 287 285 287 288 288 287 285 286 286 286 287 284 279 282 293 295 294 291 289 287 287 289 291 291 291 294 294 296
300 301 302 302 302 302 302 303 303 304 302 300 300 297 298 298 295 294 288 284 286 287 287 285 287 288 289 292 293 291 292 293 293 296 292 294 296 298 298 297 297 291 297 299 299 299 299 299 298 297 295 294 294 295 295 295 295 294 295 293 287 288 288 288 286 286 286 285 286 283 279 282 291 290 291 295 296 295 291 292 292 292 292 292 291 292 293
301 301 301 301 301 301 302 302 303 302 303 301 300 295 299 300 296 292 289 285 285 285 284 285 288 288 288 290 291 292 294 294 295 296 296 295 292 295 298 298 296 298 300 300 301 300 295 289 290 290 289 289 291 292 292 293 294 293 293 295 292 288 288 287 285 286 284 282 285 278 280 288 288 290 285 286 289 290 291 290 292 294 293 292 291 293 295
300 301 301 301 301 301 301 302 302 303 302 302 298 297 298 298 294 292 289 285 284 286 287 286 286 286 286 287 289 290 291 291 292 294 293 295 294 294 293 293 295 292 294 301 299 296 290 290 289 288 287 289 288 289 289 290 290 291 292 292 294 292 289 288 285 288 283 284 284 284 288 287 289 289 284 288 288 288 289 287 290 295 295 294 292 293 294
300 301 301 300 300 300 300 301 302 302 302 302 299 298 298 299 298 294 293 290 285 285 287 284 285 287 287 286 288 286 287 287 289 289 291 291 292 291 292 291 290 291 292 298 291 292 290 287 286 285 285 284 281 283 289 288 290 289 291 292 293 293 290 289 287 285 287 285 283 283 283 280 286 291 286 293 292 293 293 291 289 294 292 294 294 293 293
299 299 300 301 301 300 300 300 301 301 301 302 299 298 298 300 299 297 294 289 286 282 285 290 290 287 286 286 288 286 285 287 288 288 288 287 288 288 288 288 289 290 293 295 291 291 288 286 285 285 282 284 287 284 281 287 287 286 286 288 290 290 292 289 288 286 284 283 281 282 280 284 289 285 285 285 283 290 288 287 286 289 285 289 292 293 293
299 299 299 300 300 300 300 300 301 301 301 301 296 296 296 300 297 295 292 291 288 283 290 290 290 288 285 285 287 286 286 285 287 285 284 286 287 287 287 287 288 292 292 292 290 290 286 285 286 286 286 286 285 284 286 284 283 283 285 287 287 288 288 287 285 284 285 284 282 280 285 285 285 284 282 284 282 290 289 279 282 286 282 281 286 292 292
298 299 298 299 300 300 300 300 300 301 300 301 297 295 296 299 299 297 292 288 285 286 289 291 290 286 286 286 286 287 288 286 286 286 285 286 286 285 286 288 288 289 291 290 288 288 286 286 284 285 284 287 287 288 281 284 283 280 281 284 284 285 285 286 283 285 285 285 284 285 286 288 285 284 283 281 284 291 284 280 289 285 281 278 280 283 285
298 298 298 298 300 299 300 300 300 299 300 300 299 296 296 299 299 298 293 289 286 283 290 292 294 292 291 290 286 287 287 290 288 286 283 284 284 287 287 287 289 287 288 286 287 285 286 285 288 286 285 285 286 284 287 284 283 281 284 283 283 285 286 284 286 284 284 285 283 284 287 288 285 282 285 284 289 282 283 286 281 281 281 278 280 281 281
298 298 298 299 299 299 299 300 300 299 299 301 298 292 294 298 299 297 292 285 286 285 289 288 290 290 290 290 287 286 285 287 286 286 285 285 286 287 287 285 286 287 285 287 284 286 285 284 285 287 284 285 286 288 285 283 285 282 284 287 286 285 284 281 283 285 284 284 283 281 279 288 287 286 284 283 284 285 283 281 278 278 279 280 281 280 280
297 297 298 298 298 298 298 299 299 299 299 299 298 294 292 296 297 298 297 293 286 284 286 292 290 292 291 290 293 293 291 288 288 287 288 286 289 289 280 281 285 287 283 286 282 284 285 285 285 284 286 287 287 287 282 285 281 284 285 286 286 288 285 284 285 288 282 283 280 282 288 286 287 290 287 286 284 284 281 281 281 280 279 278 279 281 280
297 297 297 298 298 298 298 298 298 298 300 299 299 295 291 295 297 297 297 296 288 285 286 289 288 289 291 292 293 295 296 295 295 296 290 285 288 288 286 286 287 287 287 287 284 283 284 285 286 284 283 283 286 284 286 284 281 281 280 283 284 289 287 287 286 288 287 285 287 285 281 284 282 281 282 282 284 281 280 282 282 281 281 279 280 282 281
297 297 297 297 297 298 297 298 298 298 298 299 298 293 291 292 292 297 296 290 290 290 290 288 290 290 291 291 290 290 290 291 293 292 292 290 286 286 283 285 286 286 284 286 286 286 285 285 282 286 283 284 285 285 283 283 282 282 282 285 284 283 284 284 286 284 283 284 283 283 282 282 282 282 282 282 283 282 281 281 283 282 283 281 281 282 283
297 297 297 297 297 297 297 297 297 297 298 298 298 293 291 292 293 294 291 290 285 284 286 288 286 284 286 288 291 288 290 289 293 294 292 295 287 285 286 285 286 284 282 284 286 285 285 285 284 286 283 286 286 283 283 282 282 283 281 282 281 282 283 283 284 285 287 285 283 283 284 283 282 283 283 283 282 282 282 282 283 282 281 280 280 283 283
296 296 297 297 297 296 296 297 297 297 297 297 297 296 295 293 293 294 289 283 283 283 279 283 284 290 290 290 289 285 289 292 293 293 293 292 293 289 287 287 287 286 286 286 286 286 287 284 284 282 282 286 288 282 287 285 282 285 282 282 282 283 284 281 282 284 285 283 281 282 280 280 282 282 282 284 284 282 283 282 280 280 281 280 281 281 280
296 296 296 296 296 296 296 296 297 297 297 297 297 291 290 291 295 295 292 291 287 285 280 280 283 287 286 288 288 289 288 291 292 290 290 289 290 293 288 287 286 286 286 286 286 286 285 284 282 281 283 284 288 284 282 284 283 285 285 283 284 283 287 282 285 283 282 282 281 279 280 282 283 282 282 283 284 284 282 280 280 281 281 281 280 281 282
295 296 296 296 296 296 296 296 296 297 297 297 295 293 292 291 293 292 289 287 285 281 282 280 284 283 284 286 288 286 288 290 290 291 289 288 288 289 289 288 286 285 285 284 284 285 283 282 284 281 284 282 285 282 284 282 283 281 279 282 283 284 283 282 283 280 280 283 284 282 284 282 285 286 286 285 285 285 282 279 280 281 281 281 282 280 279
295 295 295 295 296 295 295 296 296 296 296 296 296 293 292 292 292 293 294 292 287 281 283 282 281 282 286 284 286 285 284 288 290 289 289 288 289 290 289 287 286 285 283 285 282 282 281 283 279 283 282 281 283 280 283 283 283 279 278 281 283 282 283 283 281 283 283 285 284 287 287 287 288 290 290 289 286 285 283 280 280 280 281 281 281 280 280
294 295 295 295 295 295 295 295 296 296 296 296 289 289 290 293 294 295 296 295 291 286 285 284 286 283 279 283 287 285 287 287 287 288 287 286 288 288 288 288 287 286 284 284 285 284 282 282 284 282 281 285 283 279 283 277 279 279 283 284 283 283 285 287 287 283 283 285 285 287 286 286 286 286 287 287 286 285 284 282 280 280 280 279 280 281 281
294 294 295 295 295 295 295 295 296 295 296 289 285 284 283 285 292 292 296 295 293 288 283 281 278 280 284 282 281 284 286 286 286 287 287 286 286 287 287 287 286 287 285 285 285 281 283 281 281 281 282 285 282 282 279 276 278 280 284 283 286 286 283 287 286 286 285 284 284 286 287 286 282 280 283 284 284 286 284 281 280 280 279 278 278 278 279
294 294 294 294 294 295 295 295 295 295 295 283 283 277 278 275 284 294 296 295 295 289 283 285 280 285 279 283 284 283 285 286 286 286 287 287 287 287 287 287 284 287 284 283 284 284 285 278 279 279 281 284 285 281 277 277 273 277 279 282 284 285 285 285 285 285 283 284 284 284 285 283 278 282 282 282 282 283 281 279 279 280 279 278 277 278 278
294 294 294 294 294 294 294 295 295 295 290 285 284 281 281 284 290 292 296 296 294 286 283 278 280 278 277 282 281 284 285 285 285 284 285 286 285 285 284 285 285 283 286 281 282 280 278 282 282 281 281 285 286 278 278 274 274 276 278 280 282 284 285 284 284 283 282 284 284 283 283 282 280 284 283 281 281 281 281 280 279 278 279 277 276 276 275
294 294 294 294 295 295 295 295 295 294 286 289 294 295 295 294 295 295 296 295 291 284 285 282 276 279 279 278 283 281 284 285 283 284 283 286 284 285 283 284 282 283 287 284 278 278 279 279 280 280 282 284 282 280 276 276 279 279 279 282 281 281 282 281 282 282 282 283 287 285 282 285 283 280 277 278 279 279 279 278 277 277 277 278 277 277 276
294 295 295 295 295 294 294 295 295 295 294 287 283 285 289 295 295 295 293 290 285 285 283 279 278 276 273 282 275 281 285 281 280 284 280 284 283 285 281 281 280 281 275 279 277 275 272 275 272 275 277 273 277 275 272 278 279 278 279 280 279 278 278 278 279 280 280 282 277 278 281 278 276 275 276 277 276 276 276 277 277 277 276 277 276 276 275
294 294 294 294 294 294 295 294 287 286 283 284 285 286 289 294 295 295 293 287 282 280 280 280 281 275 273 272 273 279 284 282 279 282 280 281 284 281 280 276 276 276 277 280 272 271 272 273 277 273 272 273 275 271 277 279 276 279 279 279 276 276 277 278 278 278 277 276 275 274 275 276 277 276 276 275 276 276 277 276 277 277 276 275 275 273 272
294 294 294 294 293 294 290 289 285 283 281 283 283 291 294 295 295 292 289 288 286 281 279 279 281 275 276 272 271 277 285 280 282 280 280 281 279 281 278 276 274 276 276 274 270 271 270 277 277 269 271 273 274 278 280 277 278 279 279 280 277 279 281 281 281 274 272 272 272 273 274 275 277 275 274 274 275 274 276 276 274 275 277 275 274 273 271
293 293 294 293 288 285 281 283 286 285 282 287 291 294 295 292 286 286 284 285 285 286 281 279 276 276 279 274 277 279 283 274 282 279 280 277 276 280 276 275 274 279 274 271 268 268 274 280 271 268 268 273 276 281 278 278 279 278 277 278 278 278 278 276 275 274 274 272 272 272 272 273 272 273 273 274 274 273 274 274 274 275 274 274 273 273 273
292 291 284 283 282 278 278 282 281 283 293 293 293 285 280 286 279 282 283 281 283 284 279 281 276 278 277 277 273 282 282 278 283 277 276 279 278 274 276 275 275 279 269 270 270 278 272 270 270 269 269 275 276 275 277 276 278 279 279 278 277 276 275 274 275 276 274 272 271 270 270 271 272 271 274 272 271 273 274 272 271 271 274 275 274 272 271
289 284 280 280 279 277 277 276 288 294 289 287 282 276 274 275 274 275 274 279 281 276 280 279 277 280 278 275 275 284 281 279 277 278 274 281 277 273 278 273 278 277 271 272 273 278 270 268 268 266 271 270 273 276 275 274 271 267 266 267 269 270 273 275 275 278 278 278 277 275 277 276 274 273 271 272 270 269 268 268 268 269 271 271 270 268 269
279 278 278 278 278 278 284 286 295 290 284 277 276 272 267 272 273 269 278 273 272 277 280 274 282 280 281 278 277 277 284 280 275 275 277 278 283 275 276 269 273 275 270 272 272 276 271 268 265 263 269 274 275 275 276 274 269 264 262 263 265 265 266 268 264 263 267 266 269 267 265 268 272 276 273 273 272 271 268 266 266 267 269 268 267 269 267
279 278 276 274 276 275 279 285 280 276 278 276 273 271 266 263 268 270 273 272 272 271 278 276 279 277 279 279 279 276 283 281 276 277 278 274 279 279 274 272 281 271 270 272 276 271 263 261 264 266 273 272 273 271 271 267 263 260 260 260 262 262 264 263 261 261 265 267 265 263 261 260 262 265 271 272 272 271 269 266 264 263 264 265 265 262 260
279 276 275 277 279 279 277 278 275 273 272 274 272 267 269 268 266 264 268 267 270 273 272 277 275 278 277 281 279 280 276 277 276 277 274 273 281 275 274 273 273 269 269 274 275 268 269 264 262 262 269 265 263 259 262 262 258 257 259 259 260 262 262 262 260 258 260 262 261 260 259 257 258 258 261 268 268 266 263 262 260 259 258 256 257 258 259
290 286 282 275 273 272 277 276 276 273 269 268 267 265 265 262 264 267 268 272 267 267 270 275 273 282 278 279 276 277 279 282 277 276 274 275 281 275 270 270 272 268 272 276 274 273 269 267 265 273 265 260 256 254 254 255 257 258 259 258 260 261 260 259 258 257 258 257 257 257 256 256 255 257 258 260 259 258 257 257 257 257 256 255 255 255 255
284 284 276 274 274 274 276 269 275 269 266 267 267 265 264 262 263 262 263 266 264 269 271 276 277 278 275 280 279 278 279 281 284 276 273 276 273 272 274 269 270 274 274 269 272 270 272 271 273 267 259 257 254 253 253 254 255 257 258 258 259 261 262 261 261 259 258 258 257 256 256 255 255 255 254 256 258 258 255 255 255 255 254 255 255 254 254
279 277 275 273 270 274 273 267 274 268 263 264 269 263 264 263 263 261 267 267 269 269 272 274 276 277 276 275 275 277 282 276 282 275 273 276 272 275 271 270 273 271 269 269 271 269 268 268 264 257 261 258 255 253 253 253 254 254 257 258 257 258 259 259 259 258 257 257 256 256 256 255 254 254 253 253 254 255 256 255 254 255 255 255 255 255 254
275 273 272 269 267 271 269 265 262 260 265 268 265 262 264 263 262 263 266 264 267 268 274 275 274 276 275 274 278 278 279 277 274 273 276 275 273 271 272 271 270 267 268 270 267 269 271 274 263 255 253 253 252 253 252 253 253 254 256 255 255 256 256 257 258 258 257 257 256 255 255 255 254 254 253 253 252 252 252 252 253 254 255 256 255 254 253
274 274 271 270 267 268 268 262 263 264 265 263 262 267 271 271 267 266 264 264 267 269 271 269 271 275 278 274 274 273 273 276 273 275 274 270 271 273 272 270 268 271 268 266 269 267 273 262 250 252 250 252 251 252 252 253 253 253 254 254 254 255 255 255 256 256 256 256 256 255 255 254 254 253 253 252 251 251 251 251 252 253 253 253 253 253 252
272 273 270 265 265 266 265 263 258 259 260 262 260 260 262 264 268 266 263 261 263 269 274 274 273 272 272 275 276 275 273 272 273 273 274 273 272 266 269 269 269 271 270 269 270 268 258 249 251 250 252 252 251 250 251 251 252 252 253 253 254 253 254 254 254 254 255 254 255 254 254 253 253 253 251 250 250 250 250 250 250 251 252 252 252 252 252
271 267 267 263 261 261 262 260 261 267 262 260 259 262 262 266 263 258 260 263 265 271 272 272 272 274 271 276 274 275 272 275 272 272 272 268 268 267 268 262 268 267 267 262 261 249 250 251 251 251 251 251 251 250 251 251 251 251 251 251 252 252 253 253 253 253 253 253 253 253 252 253 252 252 251 251 250 249 250 250 250 250 251 251 252 252 252
268 263 257 256 258 259 258 258 262 262 259 257 257 258 258 264 263 261 259 259 260 260 269 277 278 275 271 271 269 272 271 271 272 274 268 269 268 269 268 264 268 271 266 249 249 249 250 250 251 250 251 250 251 250 250 250 251 251 251 252 252 252 252 253 252 253 252 253 252 252 252 253 251 251 251 250 250 250 250 250 250 250 250 250 252 252 252
264 259 254 252 255 256 256 263 260 260 258 255 255 255 254 257 258 258 259 257 257 263 269 268 270 267 268 269 269 266 268 274 271 269 270 266 260 264 266 270 261 247 247 248 249 249 249 249 249 250 249 250 250 250 250 250 251 251 251 252 252 252 252 253 252 252 251 252 252 252 250 250 250 250 250 251 251 251 250 250 249 248 249 249 250 251 251
262 258 255 255 254 252 253 255 255 254 253 255 254 253 254 255 255 255 258 257 260 267 269 264 266 265 266 267 269 270 270 268 268 267 261 255 249 256 256 250 248 249 250 248 249 248 248 248 248 249 249 249 250 249 250 250 250 250 250 251 252 253 253 252 252 252 251 251 250 250 250 250 250 251 252 253 253 252 251 249 249 248 248 248 247 248 248
Wind_Speed
17 17 18 17 16 16 15 14 12 11 3 1 4 4 5 6 11 2 12 18 22 13 14 12 11 7 9 2 4 3 2 6 2 10 12 11 10 4 5 7 4 4 4 5 8 12 6 12 11 5 9 7 13 5 16 11 14 15 5 6 0 6 3 3 1 1 3 2 2 2 2 4 1 1 2 5 9 10 12 8 5 7 2 3 2 5 9
18 17 18 18 16 16 16 16 13 10 6 3 1 6 5 5 8 3 5 17 15 15 14 12 9 7 7 10 7 8 2 5 5 8 14 12 12 17 9 5 6 3 4 5 10 12 6 9 15 11 6 6 8 6 12 17 11 12 9 12 10 6 4 7 3 1 1 4 3 2 2 1 3 6 10 12 9 7 1 3 2 2 13 9 7 16 11
18 18 18 18 18 16 16 16 14 11 10 5 3 4 2 5 3 5 4 11 16 14 10 11 11 14 13 10 12 9 8 5 13 11 9 10 3 6 12 12 5 4 2 4 6 12 17 5 14 10 4 6 3 10 14 17 13 11 8 13 14 8 7 9 8 12 12 9 11 13 10 11 4 2 4 5 10 12 5 6 5 7 11 12 9 16 5
19 19 19 19 19 18 17 16 15 13 11 8 5 3 3 5 6 3 6 8 8 13 11 9 12 15 14 12 14 14 11 4 7 9 9 11 10 12 6 5 4 3 4 4 5 8 13 15 2 11 5 4 1 7 12 15 10 13 12 9 12 4 5 13 14 16 17 16 4 2 8 5 8 9 13 12 11 12 11 7 7 17 3 6 16 19 13
20 19 19 19 19 18 17 17 16 14 12 10 6 4 4 4 7 3 6 4 14 9 9 12 10 12 14 11 10 17 17 9 4 9 5 11 12 8 11 3 8 9 7 9 9 8 6 10 3 7 12 5 3 3 11 14 16 15 7 9 5 3 5 12 17 17 17 14 5 9 17 15 16 12 12 16 15 15 14 14 19 5 2 16 20 5 10
19 20 20 20 20 19 18 18 17 16 14 11 6 7 6 8 4 7 2 6 7 14 13 9 12 12 17 12 9 17 19 16 8 6 11 5 11 7 5 8 10 12 19 15 12 10 11 7 11 5 3 2 1 2 0 7 8 9 4 8 8 7 7 13 12 16 19 17 10 13 11 13 13 15 16 17 18 15 20 23 18 9 14 20 21 10 15
19 19 19 20 21 20 19 18 18 17 16 12 8 8 5 6 4 4 2 2 3 13 13 15 15 16 17 9 15 15 20 21 18 10 10 9 5 13 10 17 21 20 16 14 12 13 8 14 13 8 4 5 3 2 2 3 3 8 4 6 1 4 7 12 14 16 15 15 8 10 13 8 6 13 17 18 21 24 25 24 18 14 16 20 24 13 15
18 18 19 19 19 18 20 20 20 17 16 12 9 10 7 5 5 5 2 3 8 6 7 9 10 11 14 12 15 13 16 21 17 9 8 9 12 12 20 17 19 19 12 13 16 18 17 13 11 5 10 6 7 8 8 5 1 3 8 7 2 4 7 7 6 9 15 16 6 8 13 9 9 11 13 18 22 24 23 20 16 16 18 23 21 17 20
17 17 18 19 20 20 20 21 18 17 13 8 9 4 7 2 1 1 4 5 5 5 3 5 11 10 11 12 10 11 15 18 17 17 17 19 16 16 23 24 12 11 14 14 17 18 18 18 13 6 10 12 9 9 5 8 9 7 4 2 1 2 3 2 4 10 13 12 7 8 7 10 12 15 18 23 21 12 7 10 15 12 18 21 16 18 24
17 16 17 17 18 20 21 21 19 17 17 9 6 7 2 3 0 2 2 6 4 5 2 4 5 11 9 11 14 12 19 16 14 11 11 14 12 13 21 20 14 12 17 21 23 23 18 17 13 8 4 5 2 6 2 9 10 9 6 2 5 8 6 3 3 8 12 9 9 8 8 3 7 16 28 25 11 13 12 16 15 19 21 16 16 22 20
18 17 15 16 17 19 22 22 19 20 12 9 8 5 3 6 7 5 5 9 3 7 5 5 7 3 8 14 13 12 9 12 10 14 4 12 19 15 15 16 13 12 17 18 12 8 8 7 3 4 4 3 5 4 3 4 7 11 11 4 2 2 5 7 6 8 10 5 10 6 4 11 15 20 9 9 15 16 17 18 19 16 13 15 20 21 21
19 18 15 14 14 18 20 20 19 21 15 9 8 8 5 2 3 3 2 10 9 6 8 6 4 3 3 6 15 15 17 14 14 14 14 9 12 14 9 7 10 12 4 7 12 10 9 5 6 5 6 4 2 2 7 12 7 5 10 13 7 10 9 8 2 5 9 4 10 6 15 16 14 4 1 7 17 18 20 21 17 17 18 19 20 20 20
17 17 15 15 14 15 17 16 17 18 19 9 8 9 4 3 5 3 3 3 7 4 5 5 4 4 2 6 9 12 15 16 9 11 14 11 3 7 11 11 12 8 5 10 11 11 6 4 3 2 1 2 2 1 5 7 11 8 5 5 12 9 11 5 3 4 4 5 8 10 13 6 5 4 2 1 4 4 9 13 18 19 20 21 22 25 24
16 16 16 14 15 15 15 15 14 16 21 13 7 8 5 3 6 7 4 2 4 5 6 4 5 4 3 3 5 8 5 8 6 7 10 6 5 6 2 1 2 1 4 8 8 7 4 4 6 3 4 4 1 5 6 6 5 8 10 9 7 14 6 7 6 5 9 7 11 16 5 12 12 9 4 7 8 7 12 11 16 20 20 18 18 22 22
18 18 17 15 15 15 15 13 11 13 16 16 7 8 7 6 6 4 2 4 6 2 6 9 7 10 9 3 3 1 5 4 6 7 5 1 5 2 1 1 0 1 1 6 3 4 6 3 7 7 3 9 9 8 4 7 2 6 10 9 6 10 14 8 12 7 10 11 11 5 6 12 21 11 4 10 7 11 10 10 14 13 11 13 15 18 20
18 18 16 15 16 16 14 10 11 13 15 16 7 6 7 7 5 4 6 3 1 9 8 11 5 6 6 5 7 5 3 4 6 5 6 4 4 1 1 1 0 0 1 1 4 5 5 8 8 10 9 10 4 5 5 5 4 1 1 5 6 5 5 8 16 7 7 9 10 10 11 14 6 1 7 4 3 9 6 4 13 5 4 7 13 17 19
17 17 18 17 16 16 15 13 14 14 14 14 5 4 6 5 5 6 6 5 5 8 2 4 3 4 5 3 3 3 4 2 2 5 4 6 4 3 1 2 1 2 3 4 4 5 6 7 3 5 1 4 6 6 6 5 5 2 2 3 9 10 7 5 8 8 9 11 10 11 6 10 3 6 2 4 4 9 7 3 11 2 3 1 8 15 15
18 18 18 17 17 16 15 15 14 13 13 13 6 4 3 5 7 4 4 7 4 4 6 6 5 4 7 6 6 3 4 4 4 1 1 1 3 2 2 1 1 2 2 6 3 7 6 6 10 8 8 2 1 6 9 8 7 7 10 14 9 9 6 9 14 13 13 14 8 3 6 4 3 7 3 4 4 8 10 16 7 4 4 3 3 7 7
19 18 17 18 16 17 16 13 15 15 14 12 4 1 5 4 5 7 4 4 4 7 2 4 7 9 3 3 2 3 3 7 7 5 2 0 3 4 7 2 2 2 2 6 4 4 6 5 1 2 5 3 2 6 3 8 7 2 7 8 0 7 7 3 7 11 11 12 12 11 7 5 7 1 9 7 9 8 15 3 3 6 2 2 5 5 5
20 17 17 17 16 16 15 13 14 15 15 13 6 4 2 3 6 7 7 4 3 5 5 1 3 12 3 7 6 4 1 2 3 6 5 6 1 6 3 3 1 2 1 1 6 3 4 5 5 2 5 5 6 3 2 2 3 9 6 9 11 12 10 9 11 5 1 2 9 3 8 4 11 11 2 3 6 5 3 4 1 2 2 1 1 4 3
20 19 18 18 17 16 16 15 15 16 16 15 10 4 4 3 6 6 7 6 2 5 6 3 3 9 5 6 10 12 11 10 9 6 6 3 7 7 5 4 8 7 6 6 7 6 4 5 4 3 2 3 4 2 5 5 2 5 4 6 4 4 6 3 6 7 8 10 9 8 6 7 11 14 12 8 5 2 4 4 3 3 3 3 2 3 4
20 19 20 19 18 17 15 14 14 13 13 14 9 2 5 2 5 5 4 5 6 6 3 4 2 5 6 6 5 5 10 11 13 10 8 4 5 6 2 1 7 5 3 3 2 1 1 1 1 3 3 2 1 4 3 7 6 2 4 1 4 7 8 3 8 5 8 6 4 0 2 3 2 3 2 0 0 1 5 2 2 3 3 3 3 3 3
20 19 20 19 18 17 16 15 14 13 13 13 7 5 6 2 1 2 6 6 1 2 3 4 4 6 5 4 3 3 2 0 3 1 3 7 4 2 2 5 5 1 1 2 6 3 3 4 5 3 1 2 6 6 2 1 1 5 7 5 1 5 2 1 3 3 1 2 2 0 1 2 2 1 1 1 0 1 1 1 2 0 1 5 2 4 5
21 20 20 20 19 18 16 15 14 14 14 13 10 3 4 3 3 2 1 1 2 3 3 4 5 7 8 13 9 2 1 1 4 5 1 6 8 3 1 3 1 2 0 4 2 4 3 3 3 1 3 4 4 3 7 6 6 3 2 1 1 2 0 1 3 0 6 7 4 4 4 1 2 2 2 2 2 0 0 0 0 2 2 1 0 5 4
20 20 19 19 18 18 17 16 15 14 14 14 9 6 5 3 2 5 5 4 2 4 6 2 9 9 3 1 3 1 5 2 2 5 4 2 6 9 9 4 4 5 6 4 1 5 2 4 1 1 4 3 4 5 1 4 3 5 5 3 2 3 3 2 1 3 8 2 2 4 1 4 3 3 2 3 3 2 1 1 0 2 1 1 2 4 4
19 19 17 14 16 18 17 16 15 14 14 14 10 5 5 5 3 4 4 3 0 1 4 5 4 1 1 2 2 3 2 4 4 3 1 2 2 4 8 4 3 2 4 3 1 4 4 3 2 1 4 3 2 3 2 2 1 0 5 6 5 2 6 4 5 4 2 2 3 3 3 3 4 4 6 4 3 5 3 2 3 3 5 4 3 1 3
18 19 18 18 18 17 17 17 15 15 14 13 7 4 5 4 4 7 5 5 3 5 5 7 3 2 2 3 1 2 0 5 4 6 6 3 6 4 7 7 8 3 5 3 2 3 2 2 2 3 3 2 3 2 1 2 2 3 3 3 1 5 7 2 5 2 4 10 7 8 5 4 5 7 9 9 8 6 5 3 4 5 6 4 6 3 3
19 19 19 17 18 18 17 16 16 15 14 13 6 5 3 5 5 6 6 5 6 5 3 1 2 4 1 2 2 1 1 2 4 5 5 5 6 9 9 8 7 5 3 5 2 2 1 5 5 2 2 2 3 1 2 1 1 3 1 5 5 6 6 7 7 8 8 4 5 10 2 1 4 9 10 7 8 9 8 7 7 5 5 6 8 5 2
18 17 17 17 16 17 16 16 15 15 14 10 2 0 2 5 5 7 7 7 5 3 6 5 1 1 1 3 3 2 1 2 3 5 7 6 7 8 9 9 7 6 3 3 3 2 2 2 1 4 3 4 4 2 2 2 3 5 6 5 4 6 6 9 9 3 2 1 8 8 5 5 2 3 2 5 8 9 7 5 5 7 7 6 5 6 8
17 16 16 17 19 18 17 16 16 15 13 3 4 1 2 3 7 9 9 7 7 2 3 3 4 4 1 4 1 3 1 1 4 6 6 7 7 7 8 8 4 2 3 4 4 3 3 2 0 1 3 3 4 3 3 3 2 6 1 4 10 5 3 6 3 6 3 2 4 8 8 3 4 2 1 3 5 8 9 9 8 6 4 5 5 3 3
17 17 17 17 17 17 17 16 16 15 10 4 3 3 3 4 5 9 12 10 9 6 2 3 5 1 2 2 1 4 5 4 4 6 9 8 7 7 4 5 1 3 4 2 3 2 2 2 2 2 0 2 1 2 5 3 2 4 5 7 7 8 6 7 4 1 3 4 3 2 0 0 1 1 1 3 4 5 4 4 4 5 7 4 3 3 4
17 17 17 17 17 18 17 17 16 14 6 7 8 6 4 2 1 3 9 10 10 4 3 2 5 2 3 1 1 2 3 2 2 2 1 2 4 1 2 1 6 0 3 4 2 2 1 3 3 3 3 4 3 2 2 3 4 7 2 5 6 6 5 3 4 2 1 7 8 4 1 4 2 6 4 3 6 5 7 7 6 5 6 5 5 4 4
17 18 18 18 17 18 18 17 18 11 5 6 8 10 6 6 6 5 2 8 6 4 3 4 4 2 2 4 2 3 1 3 1 3 4 2 4 3 4 2 4 3 3 4 1 4 2 3 2 3 4 1 4 2 3 6 8 2 5 8 5 4 4 2 2 2 4 6 8 8 7 9 7 5 3 4 5 6 7 8 6 7 7 7 7 6 6
16 16 16 16 17 18 18 18 17 16 6 4 4 8 9 13 7 5 4 2 0 2 3 4 4 4 3 1 4 2 3 5 4 6 5 0 2 5 5 3 0 4 3 5 4 3 2 2 3 3 2 1 0 3 2 8 4 4 4 3 1 1 2 2 2 4 4 5 1 1 2 4 5 5 5 5 5 3 4 7 8 8 5 7 5 5 5
16 16 16 16 17 17 16 13 4 3 5 4 5 5 5 12 14 10 6 4 3 2 3 4 2 2 2 3 2 3 3 1 4 3 4 2 2 5 2 5 2 4 6 3 2 2 3 3 4 4 6 1 3 2 7 8 3 6 4 3 1 3 2 1 4 5 3 2 2 3 5 7 8 5 5 5 6 6 9 6 6 10 8 5 6 5 4
15 14 13 13 12 10 4 6 4 5 4 6 3 3 9 10 11 8 7 6 4 3 2 3 6 7 5 6 5 3 5 1 0 4 1 2 2 1 3 4 3 4 0 3 5 2 3 4 5 2 1 4 8 10 9 5 8 8 8 8 7 8 8 11 7 5 3 3 4 4 5 4 6 5 4 4 5 5 6 8 3 4 9 8 6 4 3
9 11 12 8 3 3 4 4 2 4 4 4 6 7 7 8 5 4 3 1 2 1 4 2 2 6 10 6 1 2 7 5 3 3 2 3 5 1 3 1 5 2 4 1 1 4 5 2 5 3 2 9 10 6 4 8 9 8 6 6 8 8 3 1 5 10 7 5 6 4 3 5 4 4 6 5 6 4 6 7 7 8 8 9 7 6 6
8 6 5 4 3 2 2 4 4 5 10 15 11 6 2 1 4 3 3 3 3 4 3 3 6 2 5 2 5 7 7 4 4 6 1 3 4 1 1 3 5 3 5 4 5 5 3 2 2 5 5 7 2 1 7 6 7 6 7 5 4 4 4 5 8 9 7 5 3 4 4 3 5 3 7 6 5 6 5 3 3 1 5 8 7 7 7
8 3 1 2 2 2 4 3 5 14 8 2 2 2 0 0 2 2 3 3 2 4 2 5 7 7 3 2 2 3 4 8 8 5 6 7 5 3 2 5 4 4 2 1 5 3 3 1 0 1 7 4 2 6 4 3 4 4 4 4 3 2 2 7 5 9 13 12 12 11 11 11 11 8 4 6 3 2 2 3 3 3 5 6 7 5 6
2 2 3 3 3 4 2 5 16 11 2 2 1 2 1 0 2 3 2 1 1 2 3 6 5 5 7 9 7 7 3 6 10 10 7 4 0 5 3 2 2 4 4 5 4 4 6 6 3 2 8 7 8 3 7 6 6 4 5 5 5 5 3 4 3 6 3 4 5 6 6 4 2 8 10 8 8 7 4 4 3 4 5 5 5 7 6
1 3 2 2 5 2 1 5 3 3 2 3 2 1 1 1 2 1 1 5 4 2 2 3 2 3 2 3 1 4 1 2 2 2 3 4 3 4 3 4 2 4 3 4 2 6 3 4 2 5 11 2 6 3 5 6 4 3 4 4 4 4 4 6 7 6 3 4 6 6 6 4 5 4 5 7 7 8 7 7 6 5 5 6 7 5 3
4 3 3 3 1 0 3 2 1 3 2 0 3 2 2 1 2 3 1 3 5 2 3 2 4 7 6 9 8 5 2 1 2 2 2 3 3 5 3 1 1 3 2 2 4 4 4 3 3 5 7 3 1 3 2 5 3 3 5 6 5 5 5 7 8 8 7 3 5 7 6 8 7 6 3 7 8 9 9 9 9 5 6 4 4 5 4
7 6 5 3 1 2 0 2 1 2 2 1 1 1 0 1 3 3 2 1 2 2 3 2 1 2 2 4 3 0 4 1 2 2 2 4 1 3 3 1 2 1 3 2 4 4 4 5 5 11 3 4 3 3 4 3 3 3 4 4 5 5 6 6 7 8 6 6 7 9 9 11 8 6 5 8 12 12 7 6 5 7 5 5 5 5 4
2 1 2 1 1 1 1 5 1 2 1 1 5 5 3 2 2 1 1 3 2 1 3 6 6 8 5 3 5 3 2 0 2 2 1 0 3 3 2 3 4 2 4 2 2 5 7 3 7 2 4 2 4 5 6 6 6 2 3 5 6 6 6 6 7 7 6 4 6 7 8 7 6 9 8 6 6 13 11 7 4 5 5 5 7 6 3
3 2 1 1 1 1 2 2 1 3 4 3 3 2 4 7 5 4 7 3 4 5 4 5 5 6 6 2 2 1 2 3 1 4 3 3 2 2 3 4 2 2 3 4 2 1 1 4 1 6 3 2 4 5 5 5 4 3 2 3 7 7 6 6 6 5 5 5 6 8 10 6 8 11 10 9 7 5 7 9 5 6 5 7 7 7 4
2 3 2 2 2 1 2 1 1 1 1 3 3 6 6 7 6 5 6 1 2 1 7 7 6 5 5 2 6 6 3 2 3 2 2 1 4 4 3 1 3 4 2 2 4 7 9 6 5 3 4 4 5 5 6 5 5 3 2 4 5 6 7 6 6 5 5 5 5 6 7 8 7 8 8 7 8 9 6 4 3 4 4 8 8 7 5
2 1 1 0 1 1 1 1 3 3 1 2 4 7 8 9 6 3 1 1 1 3 1 1 3 3 7 3 1 2 0 2 3 2 4 1 3 1 3 3 3 3 6 6 5 3 5 2 1 3 4 4 5 5 5 6 6 6 4 4 3 5 6 6 5 6 5 5 6 6 6 6 6 6 6 9 8 7 6 4 5 3 4 8 7 6 7
3 0 2 2 3 2 3 3 1 1 2 1 3 4 5 0 5 3 5 5 6 3 5 4 2 1 3 2 2 4 3 1 2 2 2 3 2 4 1 1 1 1 1 6 7 3 3 2 2 4 4 4 4 5 5 5 7 8 7 5 5 5 4 5 5 5 5 4 5 5 5 6 5 6 9 10 9 7 5 5 5 5 7 8 7 7 8
3 1 2 2 1 1 0 2 2 1 3 6 4 6 8 4 4 5 8 5 6 4 2 2 2 3 2 2 2 2 2 2 4 3 3 2 3 4 3 4 4 3 2 1 1 3 2 3 3 2 3 4 4 3 4 4 4 4 5 6 6 4 4 4 5 5 5 4 5 5 6 5 6 6 7 8 11 7 5 5 6 5 4 6 8 9 8
3 4 7 4 2 1 3 1 1 1 4 6 7 6 8 4 4 5 7 8 5 5 4 1 1 2 1 2 0 1 2 0 1 1 4 3 2 2 3 1 2 5 4 2 2 1 3 3 3 4 3 3 3 4 4 5 4 3 2 2 4 4 5 5 5 5 5 4 5 5 5 6 5 6 7 9 8 7 7 8 7 7 7 5 6 8 9
3 6 4 1 0 1 4 3 3 3 1 4 5 5 6 4 4 6 9 6 8 4 0 2 1 2 1 0 0 1 2 1 3 1 2 3 3 0 6 7 2 3 2 0 0 1 1 2 2 2 3 3 4 4 4 4 4 3 2 1 1 3 4 6 6 5 6 5 5 6 7 6 5 6 6 6 8 10 11 9 7 6 7 7 6 8 9
3 4 2 3 5 4 3 1 4 5 3 2 3 4 4 3 6 7 8 6 5 2 5 1 2 1 1 3 3 1 1 3 2 2 2 2 2 1 1 1 2 3 3 3 3 2 2 1 1 2 2 3 4 4 4 3 3 3 3 3 3 3 5 5 6 5 5 6 6 6 6 5 4 4 3 5 6 8 11 8 6 6 7 7 7 8 8
Wind_Direction
277 276 274 269 268 266 267 270 274 281 286 29 288 266 237 217 242 1 166 156 160 173 204 194 196 200 223 229 211 324 216 209 175 167 184 204 222 257 232 207 199 240 168 185 180 173 198 178 207 202 221 240 203 203 181 156 166 165 190 173 312 95 119 137 291 329 325 307 315 24 57 111 12 312 140 128 202 190 203 208 180 192 246 217 269 253 268
273 270 270 269 264 264 264 265 268 272 257 224 267 286 274 252 240 243 204 173 171 179 203 199 197 210 220 212 217 214 264 196 201 194 180 190 188 213 221 210 204 231 175 150 190 181 215 208 204 225 206 251 200 180 179 158 177 170 198 169 187 155 245 160 129 29 335 348 337 345 336 63 201 190 203 201 199 202 164 90 108 250 225 187 160 245 252
275 271 266 264 261 260 258 258 264 266 260 204 189 250 284 294 263 215 200 193 184 211 185 206 186 199 206 177 210 216 233 203 205 200 197 198 228 194 228 215 136 207 142 189 195 189 203 212 214 222 200 229 222 192 181 185 181 203 185 170 165 178 156 157 185 207 209 211 201 207 198 202 202 276 193 194 191 194 166 244 206 229 250 146 217 252 230
273 271 267 261 261 259 255 254 254 256 256 229 209 217 252 212 260 187 178 221 223 212 212 210 189 198 200 199 213 211 218 190 206 193 219 197 199 212 231 208 226 224 208 211 190 216 221 219 155 198 221 243 271 198 187 192 195 203 174 182 153 173 179 185 195 206 220 225 209 89 101 81 195 213 182 208 208 205 202 223 214 226 217 163 227 234 267
273 271 265 261 258 255 256 256 253 253 251 222 215 235 233 312 238 182 216 144 238 245 201 201 183 210 183 204 171 207 216 210 209 182 210 209 207 211 216 154 172 215 220 231 240 211 220 243 231 204 210 196 201 257 190 200 206 186 167 171 103 85 178 210 209 214 225 232 186 181 157 182 206 187 198 205 199 199 197 205 229 118 75 263 248 171 248
273 270 265 261 256 252 250 252 248 250 253 214 197 236 186 227 242 252 263 242 193 222 232 202 213 205 185 203 166 204 203 206 207 172 225 203 207 208 222 215 202 204 205 203 223 221 228 204 229 222 228 149 305 100 243 200 192 164 189 180 173 155 193 215 209 227 231 232 207 163 180 188 193 198 198 200 206 200 207 221 222 125 215 240 259 148 232
272 273 268 263 258 251 249 252 250 240 244 225 204 234 213 228 314 278 51 264 254 218 224 197 199 209 195 205 205 200 202 207 204 189 189 211 196 203 218 210 212 213 206 198 212 210 209 230 223 216 163 183 132 168 23 251 66 178 158 182 207 161 220 205 199 222 235 237 216 157 185 209 205 204 205 203 202 208 211 220 214 204 228 241 258 240 233
272 272 268 261 256 254 250 245 242 239 243 234 222 220 237 200 201 264 258 244 274 304 244 207 187 219 195 203 208 205 201 209 204 212 183 192 211 195 221 222 212 212 201 197 213 208 212 215 214 186 169 210 188 201 188 154 346 161 179 174 264 155 223 170 177 213 236 238 208 150 196 194 211 224 219 218 216 214 211 215 220 218 238 245 250 266 267
267 268 266 261 254 250 246 244 242 237 228 235 221 231 207 278 235 86 324 305 263 264 232 218 189 193 200 215 208 217 208 213 198 207 201 197 193 194 212 220 209 211 209 210 223 222 214 217 210 180 172 192 207 172 243 169 159 181 143 127 302 82 256 12 117 200 240 238 196 191 199 209 221 234 229 227 222 222 211 216 221 199 224 236 247 254 251
264 265 266 267 261 253 247 240 236 238 225 232 224 241 179 245 232 164 226 256 217 261 281 226 194 221 190 196 207 209 215 216 190 218 222 223 218 201 212 215 200 207 206 213 218 219 214 222 229 231 243 262 222 222 195 174 161 168 178 25 169 172 148 141 170 201 238 252 137 176 200 246 266 248 237 229 212 208 211 224 216 208 211 221 230 240 247
264 262 265 267 263 256 246 239 234 231 228 226 227 226 187 205 223 203 208 253 222 197 238 287 228 227 187 198 211 215 222 208 195 198 192 199 225 220 215 212 200 215 214 218 227 225 215 225 166 120 136 200 229 209 165 208 177 162 161 141 163 106 175 196 151 206 232 213 139 133 149 219 228 238 243 214 212 194 206 221 221 222 204 220 226 238 248
256 259 260 264 261 257 251 242 237 236 224 231 234 240 216 182 263 231 180 224 244 176 198 217 182 320 329 228 204 200 210 211 202 194 216 211 224 217 215 224 200 224 212 97 98 94 80 78 83 76 68 61 85 160 183 184 215 237 172 167 169 172 184 208 158 207 226 129 111 157 215 229 241 18 166 198 210 206 209 226 224 224 223 235 250 257 259
255 255 257 256 258 257 253 247 245 242 234 219 229 241 218 182 234 220 179 198 241 167 195 223 192 196 232 318 260 226 213 215 198 200 215 213 195 193 204 206 202 219 106 124 117 131 155 158 133 165 123 56 40 63 192 204 203 187 230 198 160 174 186 146 187 147 44 123 179 229 222 245 342 271 66 189 89 160 192 237 240 230 223 219 233 242 248
252 254 252 251 253 253 254 248 247 247 242 223 223 228 222 168 234 229 197 191 240 192 200 216 161 166 201 248 277 275 248 223 186 169 204 212 208 197 206 177 200 27 189 136 145 137 188 161 220 156 224 163 182 216 220 226 209 174 200 218 202 174 165 166 213 172 208 197 211 233 338 317 286 266 204 155 170 156 170 220 242 233 225 218 224 238 247
253 247 245 249 255 254 251 252 250 252 255 239 209 237 224 198 218 246 242 225 256 247 189 222 174 213 196 191 148 235 251 216 174 204 197 89 219 252 160 127 58 12 280 154 184 174 189 128 207 186 172 183 198 215 140 213 217 223 202 192 187 173 186 185 202 207 202 212 233 235 241 248 252 239 145 186 179 173 175 190 259 250 224 217 210 232 243
246 245 244 240 241 247 247 259 266 261 255 248 231 227 230 209 195 233 260 235 212 245 212 216 188 152 166 192 182 156 203 219 207 179 195 180 193 67 335 17 305 155 320 190 167 179 171 197 205 206 204 198 185 109 221 140 194 322 306 200 180 231 210 172 197 190 158 212 224 220 226 240 243 179 172 163 103 142 127 139 251 261 166 189 178 224 237
246 249 243 238 241 245 242 235 245 252 258 252 228 211 235 185 198 212 249 251 228 243 13 192 200 125 114 137 129 181 154 182 208 194 177 195 193 162 331 349 327 121 187 182 211 193 184 197 156 205 238 135 162 198 107 168 150 201 30 135 202 198 195 156 213 206 197 201 216 225 213 251 231 187 223 208 143 123 111 149 252 231 180 224 200 215 224
241 241 244 239 235 238 242 241 239 242 254 257 241 223 224 173 189 196 226 245 267 264 240 163 188 160 189 178 177 191 129 107 85 350 5 283 110 134 173 109 136 277 175 201 168 214 205 201 192 188 203 204 177 140 203 160 188 176 176 180 180 199 202 201 204 206 211 212 236 278 268 263 172 184 194 160 180 134 155 221 238 173 212 214 174 236 253
238 239 241 243 239 237 235 236 245 243 241 249 248 273 250 199 178 198 221 241 220 250 258 227 195 204 189 74 122 159 183 174 155 135 188 50 257 194 136 190 156 190 203 176 163 210 208 221 170 161 169 211 181 208 137 174 189 76 113 128 47 207 200 219 202 214 210 211 220 231 257 234 162 248 160 169 119 194 220 216 127 136 182 220 186 226 241
242 239 238 239 243 241 238 234 241 248 243 234 215 206 230 168 197 193 198 221 226 253 271 218 219 218 209 165 163 125 80 44 170 140 177 196 95 102 82 204 345 95 7 176 215 189 195 208 178 182 212 168 210 156 205 276 98 159 168 187 178 178 176 186 200 194 245 105 222 179 240 237 126 122 60 272 187 241 143 135 281 191 190 170 242 195 239
241 241 239 237 236 237 238 234 230 234 243 243 226 210 257 195 201 204 198 201 258 280 280 219 259 255 222 202 185 174 173 180 177 189 200 157 176 147 183 208 181 164 192 172 199 193 181 210 161 203 224 161 208 138 203 164 246 289 130 181 190 171 171 179 219 176 183 195 207 207 228 128 177 143 179 193 200 181 173 109 150 199 181 178 191 232 196
234 237 239 237 235 236 237 238 238 241 242 241 235 209 245 201 176 193 206 183 213 223 253 310 278 266 273 287 273 218 195 189 192 175 162 128 230 190 189 97 151 161 187 126 43 15 1 181 110 142 178 219 307 206 191 177 205 196 344 118 174 207 196 171 192 171 186 204 211 277 277 144 155 66 356 336 240 153 175 119 138 154 227 188 141 181 170
230 231 237 238 236 234 235 236 240 243 242 241 222 201 233 168 194 190 166 226 241 263 290 302 301 282 272 264 219 248 243 259 148 113 153 144 187 251 161 151 208 180 134 127 188 157 177 147 210 162 83 215 170 195 274 200 171 155 176 239 127 1 139 59 107 267 17 360 184 81 340 287 272 347 242 271 316 16 103 112 65 257 191 173 177 167 172
235 226 226 232 235 235 234 236 238 240 242 242 234 155 230 198 218 115 56 105 157 281 272 216 220 242 228 246 230 238 209 255 200 194 190 167 171 197 315 261 200 58 316 229 175 143 193 121 210 101 184 215 116 161 188 223 222 172 81 48 300 281 94 74 147 60 132 237 152 179 206 271 253 264 307 261 245 252 118 119 238 163 176 211 198 151 155
234 231 228 233 234 235 233 234 236 239 243 244 237 195 219 245 211 194 160 210 198 186 247 211 219 234 233 282 89 129 234 225 141 146 148 225 189 180 199 187 162 162 199 186 151 84 56 121 223 104 182 258 148 238 257 193 248 153 175 241 108 273 168 64 222 192 187 253 187 224 310 260 258 220 238 223 221 198 183 207 267 138 87 101 110 106 106
228 230 225 225 234 238 237 236 235 238 241 242 230 186 191 219 177 177 208 219 28 237 237 250 237 47 284 153 196 211 199 153 172 127 71 182 169 177 137 114 61 38 98 77 84 138 144 81 104 189 166 263 96 188 217 214 104 78 183 211 190 185 125 199 174 171 287 332 257 227 287 297 253 217 222 217 171 147 128 139 140 150 121 97 57 71 169
237 230 225 223 226 226 230 234 235 236 237 239 235 190 184 230 190 188 176 163 211 242 219 244 249 324 6 231 251 26 54 175 161 149 134 123 115 103 118 128 120 95 100 76 36 109 58 108 155 193 185 230 93 184 130 63 116 156 180 259 148 113 189 186 107 122 215 208 193 143 140 241 225 225 223 213 180 157 146 141 140 140 128 129 104 55 26
225 230 235 230 227 227 226 229 233 235 236 239 224 206 191 206 205 211 194 173 195 253 280 301 9 267 185 301 259 136 301 227 178 156 142 135 130 130 136 139 125 126 127 116 78 67 147 166 222 219 65 282 76 291 142 248 63 21 232 238 192 168 187 152 175 186 225 212 170 183 138 140 203 200 209 194 156 158 159 171 168 171 152 146 129 112 71
226 219 225 235 242 236 229 229 230 232 235 231 112 55 302 230 228 214 208 187 189 243 280 266 238 8 238 251 48 28 5 174 173 156 144 143 139 141 142 152 150 145 103 73 109 110 134 220 114 144 180 228 110 227 141 161 166 219 224 187 156 222 185 176 188 134 325 228 173 184 163 172 241 256 209 164 166 161 167 171 180 169 164 168 155 159 151
232 230 223 224 227 230 231 230 229 231 229 169 99 91 283 270 202 210 199 184 172 158 218 260 284 258 5 37 314 238 170 155 147 144 143 143 146 150 149 134 131 124 116 151 154 156 201 143 243 286 297 323 132 212 123 226 223 244 264 158 199 185 167 215 165 151 208 202 177 185 199 181 59 57 99 160 167 165 164 170 174 165 175 162 157 181 183
227 228 230 228 229 230 231 229 231 231 221 91 100 168 188 254 239 198 189 179 167 166 223 250 254 322 12 253 162 198 184 167 169 169 164 154 152 147 168 105 88 141 115 86 93 204 133 98 162 255 321 327 85 139 174 169 215 283 251 196 194 198 205 215 203 182 145 140 136 119 93 46 10 63 63 132 161 153 121 146 172 163 157 148 152 147 152
225 229 229 229 230 230 231 231 231 228 188 152 188 192 185 203 40 344 195 176 149 134 182 244 242 247 242 204 216 244 139 173 92 68 42 158 117 125 89 117 163 149 135 137 188 76 203 210 114 202 136 226 132 87 124 110 196 241 231 178 223 213 214 180 171 178 98 142 117 77 304 274 212 179 226 187 161 162 148 159 163 139 122 110 96 79 82
228 230 231 232 233 232 232 234 233 226 188 204 226 244 223 175 142 100 174 165 151 201 181 219 223 225 221 236 109 346 147 92 69 169 183 269 153 137 132 111 92 80 316 109 237 165 215 119 181 139 225 21 112 194 143 206 227 223 188 194 206 206 209 208 158 145 158 179 166 171 206 211 210 188 128 127 139 152 145 139 142 125 117 111 102 95 79
228 229 232 235 237 237 236 235 234 236 209 130 220 227 234 224 198 159 112 105 202 220 169 170 210 217 245 41 49 230 131 164 168 179 172 296 203 131 175 102 144 144 294 138 243 72 323 85 127 186 39 7 347 81 245 246 195 189 206 215 92 113 145 141 160 186 204 204 308 61 129 122 103 108 92 106 101 87 107 122 131 119 121 123 126 122 131
227 227 230 233 235 237 239 237 237 191 196 216 230 253 210 214 213 211 188 150 209 215 172 209 180 139 84 1 222 232 141 136 179 194 148 189 20 151 149 110 231 144 248 111 47 144 160 196 179 109 212 155 86 193 239 228 170 180 194 187 220 125 90 144 263 216 189 132 99 101 123 124 110 123 142 139 135 144 138 150 153 133 132 151 144 148 141
221 222 224 228 233 239 237 238 191 191 197 206 226 133 182 193 198 202 197 180 199 251 261 218 187 202 160 182 194 225 129 107 59 54 185 149 62 357 92 126 129 223 127 101 188 147 167 226 100 208 209 146 214 210 220 141 167 188 187 195 194 172 191 193 191 136 82 67 83 102 110 108 131 147 134 142 142 153 148 139 150 140 142 146 161 152 118
214 219 206 195 187 116 193 204 160 193 209 128 140 133 134 108 27 58 24 312 317 126 195 276 285 204 183 194 94 203 141 171 169 104 177 129 165 111 75 75 167 169 64 24 118 143 228 62 102 177 192 192 229 201 154 177 170 177 200 208 198 211 212 85 121 119 87 67 75 61 88 109 91 115 128 142 157 142 134 160 166 149 151 160 154 163 173
201 135 99 102 98 138 178 199 196 194 145 139 124 85 340 58 186 170 171 210 222 167 220 186 253 255 7 135 176 200 147 183 114 149 183 223 120 278 182 135 211 127 150 191 228 182 96 60 164 186 257 256 286 207 185 171 193 190 192 208 214 204 171 136 141 118 120 108 97 96 68 82 130 171 150 162 162 165 178 138 122 112 140 145 152 146 127
164 121 84 82 127 194 189 231 186 160 133 70 73 92 298 253 138 185 213 194 178 202 226 180 218 216 153 345 314 151 165 161 157 189 172 203 133 202 164 161 242 101 233 93 270 121 119 257 296 78 255 259 236 222 200 150 72 47 39 31 11 40 149 170 170 158 172 182 188 183 165 169 173 192 189 134 102 53 83 107 90 112 128 126 126 126 122
45 92 141 158 180 221 242 183 155 134 112 105 359 110 193 205 138 234 170 91 283 260 168 209 201 169 176 181 174 199 233 149 162 185 180 143 277 164 181 75 258 111 184 164 208 112 137 176 227 104 277 236 232 184 159 157 123 44 23 13 23 21 27 81 44 1 17 17 78 102 58 57 100 153 161 159 149 129 104 80 76 93 110 113 116 122 127
77 82 84 189 229 199 251 129 43 39 105 87 39 360 79 345 260 250 128 189 187 234 176 193 118 131 148 100 203 215 195 64 334 43 118 167 228 86 85 174 223 102 217 149 203 89 100 70 150 174 236 220 140 132 124 101 85 60 25 19 26 26 44 65 41 4 26 87 80 68 47 54 69 87 136 149 143 139 134 129 113 106 103 110 110 105 105
184 165 191 148 130 92 42 39 77 79 24 127 128 209 195 214 33 360 185 152 207 180 274 164 180 169 194 170 176 144 295 190 121 119 115 176 223 129 182 148 7 126 199 212 103 79 100 148 181 255 242 184 289 336 78 101 35 28 20 17 24 34 49 58 58 29 22 64 97 86 62 61 70 53 70 130 130 131 131 125 115 95 102 93 85 87 83
110 93 76 66 47 11 316 136 247 120 146 160 120 204 203 116 209 164 233 235 318 99 250 52 237 99 351 68 33 173 175 181 151 179 113 173 126 54 100 166 162 194 207 113 113 140 133 176 195 230 145 132 11 6 24 24 13 33 32 19 25 48 69 70 62 62 52 20 56 79 79 79 66 55 55 96 111 94 67 82 105 120 113 103 96 82 78
104 91 56 356 61 276 167 227 152 83 220 153 167 191 160 190 288 71 117 242 220 268 226 140 201 142 183 181 149 162 97 308 242 86 12 288 88 170 152 160 193 225 53 40 151 170 186 198 207 157 102 55 45 16 4 350 349 342 35 29 27 47 71 84 94 95 84 75 62 78 84 72 82 47 26 43 78 120 120 95 82 101 109 108 95 88 82
113 83 97 56 54 243 110 248 93 140 186 211 170 178 161 190 206 183 185 239 129 218 207 178 155 161 162 214 45 308 168 181 189 114 210 139 108 213 133 194 149 86 123 185 158 214 47 257 229 66 128 75 25 5 1 351 338 329 317 24 33 30 44 63 75 82 73 60 63 64 73 76 77 76 54 59 55 55 107 123 139 121 115 110 107 97 66
110 157 126 130 184 184 179 238 48 8 287 153 192 193 171 207 166 209 242 133 154 138 148 196 170 155 163 228 165 187 131 160 120 213 169 83 151 207 195 85 57 102 199 151 150 192 204 198 116 89 32 18 8 353 356 347 340 288 6 56 15 20 24 50 66 74 77 88 82 76 85 71 71 90 82 69 51 52 58 59 70 107 124 109 106 107 86
75 40 103 114 141 235 96 177 221 204 177 224 220 187 187 186 186 166 107 11 172 209 53 39 128 201 163 192 99 349 266 170 151 207 94 101 188 154 22 115 175 179 160 180 177 191 215 124 357 21 360 356 356 354 350 355 356 2 13 44 38 35 34 36 45 58 73 82 86 83 79 85 85 87 102 87 61 49 49 48 49 52 91 109 107 101 92
159 168 108 152 203 157 159 237 231 298 7 20 309 306 307 327 113 58 0 356 304 287 150 136 115 68 11 296 70 192 195 229 146 247 152 188 59 30 162 94 198 168 169 153 198 171 104 19 1 8 360 22 354 353 344 353 352 1 8 20 34 40 40 46 43 37 44 63 76 76 83 80 81 88 83 96 91 63 53 56 63 74 92 95 97 96 100
70 100 145 174 161 106 46 344 11 146 340 349 359 30 8 9 54 6 329 336 348 314 294 118 189 101 213 176 158 206 237 225 181 206 79 39 133 192 153 193 170 156 288 67 125 55 17 25 349 22 15 16 18 357 345 333 345 352 4 10 15 17 42 58 57 53 51 53 62 80 83 86 95 96 100 97 89 74 57 65 70 71 73 97 105 106 101
51 29 23 38 46 14 322 281 87 187 337 16 14 15 345 11 28 32 9 342 341 314 283 271 48 138 228 73 79 148 259 182 204 80 89 179 172 181 85 60 232 180 187 72 53 37 14 351 360 13 13 11 3 9 341 342 1 358 356 357 18 25 36 53 67 59 53 57 73 75 91 92 91 92 101 101 102 104 83 65 60 68 68 67 92 99 99
53 83 104 304 282 250 348 135 166 186 70 13 8 1 352 355 1 322 355 339 315 312 66 158 178 98 71 49 360 314 268 158 76 82 148 139 9 128 171 181 181 9 320 282 292 31 26 11 18 344 355 333 7 353 357 345 355 1 21 21 68 54 47 54 64 73 67 57 80 86 83 80 82 95 100 104 107 101 87 64 51 56 65 62 61 79 85
58 75 87 70 49 36 322 327 54 63 59 50 42 355 338 313 340 308 323 317 298 223 198 224 98 97 100 189 214 201 26 36 28 118 64 54 14 282 3 8 34 8 19 25 6 21 22 359 31 5 4 338 343 358 349 355 25 20 40 16 38 77 79 72 71 69 76 81 76 87 89 90 98 103 107 102 100 92 85 79 47 53 63 66 61 62 74